Hourly Data Report for October 31, 2014

All times are specified in Local Standard Time (LST). Add 1 hour to adjust for Daylight Saving Time where and when it is observed.

OTTAWA INTL A
ONTARIO

45°19'00.000" N
75°40'00.000" W
114.90 m
6106001
71628
YOW

Download Data

Hourly Data (October 2014)
Hourly Data Report for October 31, 2014
Temp Definition
°C
Dew Point Temp Definition
°C
Rel Hum Definition
%
Wind Dir Definition
10's deg

Wind Spd Definition
km/h
Visibility Definition
km
Stn Press Definition
kPa
Hmdx Definition


Wind Chill Definition


Weather Definition


TIME
00:00 Legend Double Dagger 0.9 -3.6 72 30 5 24.1 100.33     LegendNANA
01:00 Legend Double Dagger 1.3 -3.2 72 33 6 24.1 100.34     Cloudy
02:00 Legend Double Dagger 1.2 -3.1 73 33 6 24.1 100.35     LegendNANA
03:00 Legend Double Dagger 0.6 -2.1 82 27 3 24.1 100.36     LegendNANA
04:00 Legend Double Dagger 0.2 -2.9 80 36 1 24.1 100.36     Mostly Cloudy
05:00 Legend Double Dagger 0.2 -2.4 83 36 2 24.1 100.38     LegendNANA
06:00 Legend Double Dagger 0.7 -2.5 79 35 9 24.1 100.40     LegendNANA
07:00 Legend Double Dagger 0.3 -2.6 81 3 7 24.1 100.43     Mainly Clear
08:00 Legend Double Dagger 1.2 -1.7 81 3 9 24.1 100.46     LegendNANA
09:00 Legend Double Dagger 3.0 -0.8 76 3 11 24.1 100.49     LegendNANA
10:00 Legend Double Dagger 4.2 -1.0 69 5 10 24.1 100.48     Mainly Clear
11:00 Legend Double Dagger 5.0 -1.2 64 9 13 24.1 100.47     LegendNANA
12:00 Legend Double Dagger 6.0 -2.1 56 9 9 24.1 100.39     LegendNANA
13:00 Legend Double Dagger 6.3 -2.3 54 8 9 24.1 100.37     Mostly Cloudy
14:00 Legend Double Dagger 6.8 -2.1 53 7 14 24.1 100.35     LegendNANA
15:00 Legend Double Dagger 6.3 -2.3 54 4 15 24.1 100.38     LegendNANA
16:00 Legend Double Dagger 5.7 -2.9 54 4 15 24.1 100.40     Mostly Cloudy
17:00 Legend Double Dagger 4.1 -2.8 61 4 12 24.1 100.42     LegendNANA
18:00 Legend Double Dagger 4.0 -2.8 61 4 10 24.1 100.47     LegendNANA
19:00 Legend Double Dagger 4.5 -3.3 57 2 20 24.1 100.52     Cloudy
20:00 Legend Double Dagger 3.9 -2.7 62 3 19 24.1 100.56     LegendNANA
21:00 Legend Double Dagger 3.5 -3.1 62 3 21 24.1 100.60     LegendNANA
22:00 Legend Double Dagger 3.1 -3.3 63 3 18 24.1 100.59     Cloudy
23:00 Legend Double Dagger 2.8 -3.3 64 3 16 24.1 100.60     LegendNANA

Notes on Data Quality.

Legend

  • E = Estimated
  • M = Missing
  • NA = Not Available
  • ‡ = Partner data that is not subject to review by the National Climate Archives
Date modified: